Location: Newark
(33.6439°N, 114.9881°W)
Time: 22:52:03
(UTC+00:00)

A-11 Canister half - Pass Details

Date: 24 August 2019
Orbit: 1527 x 1682 km, 47.3° (Epoch: 19 September)

Event Time Altitude Azimuth Distance (km) Brightness Sun altitude
Rises 02:29:42 0° 303° (WNW) 4,937 13.4 -3.4°
Reaches altitude 10° 02:32:59 10° 299° (WNW) 3,943 12.9 -4.0°
Maximum altitude 02:42:39 52° 227° (SW) 1,993 9.9 -6.0°
Drops below altitude 10° 02:52:05 10° 154° (SSE) 3,851 10.7 -7.8°
Sets 02:55:16 0° 150° (SSE) 4,814 11.1 -8.5°
